Date,TemperatureHighF,TemperatureAvgF,TemperatureLowF,DewpointHighF,DewpointAvgF,DewpointLowF,HumidityHigh,HumidityAvg,HumidityLow,PressureMaxIn,PressureMinIn,WindSpeedMaxMPH,WindSpeedAvgMPH,GustSpeedMaxMPH,PrecipitationSumIn
2013-1-1,90.0,82.9,77.5,77.8,74.5,72.1,91,76,62,29.62,29.53,10,2,10,0.00
2013-1-2,90.9,84.6,80.6,77.5,75.7,73.0,86,75,63,29.59,29.47,8,2,8,0.00
2013-1-3,92.7,89.2,83.8,74.9,72.4,70.3,67,58,51,29.56,29.47,9,2,9,0.00
2013-1-4,89.2,84.3,78.1,77.2,75.0,72.8,87,74,64,29.56,29.50,9,2,9,0.71
2013-1-5,88.3,83.7,77.4,75.8,72.9,69.8,87,70,61,29.62,29.53,13,2,13,0.00
2013-1-6,88.7,81.3,74.8,74.9,71.8,70.0,87,74,58,29.62,29.53,10,2,10,0.17
2013-1-7,88.0,79.8,75.0,76.4,73.0,69.5,91,81,64,29.65,29.53,11,2,11,1.41
2013-1-8,86.7,78.0,75.0,73.7,71.9,71.1,90,82,63,29.59,29.47,7,1,7,0.41
2013-1-9,90.9,85.4,78.6,77.4,74.9,72.4,86,71,62,29.53,29.35,4,0,4,0.00
2013-1-10,93.6,88.7,81.5,77.1,74.8,72.1,77,64,55,29.50,29.35,4,0,4,0.00
2013-1-11,90.9,84.1,79.2,78.2,74.5,71.9,80,73,65,29.56,29.47,7,1,7,0.00
2013-1-12,90.7,85.9,78.8,80.1,77.6,75.6,91,77,66,29.62,29.56,5,1,5,0.04
2013-1-13,95.0,90.6,81.7,75.9,71.5,66.8,82,55,40,29.62,29.50,6,2,6,0.00
2013-1-14,91.6,86.8,78.6,74.2,70.8,68.0,77,60,48,29.56,29.47,5,0,5,0.00
2013-1-15,77.7,76.3,75.2,68.8,67.8,67.1,77,75,73,29.56,29.53,6,2,6,0.00
2013-1-16,87.3,83.1,77.7,75.2,73.0,70.7,79,72,65,29.59,29.50,4,0,4,0.00
2013-1-17,88.5,81.9,75.2,75.3,71.9,69.7,84,72,63,29.59,29.47,4,0,4,0.00
2013-1-18,89.1,85.4,80.2,75.6,73.9,72.8,83,69,62,29.56,29.44,3,0,3,0.00
2013-1-19,80.2,77.5,75.9,76.4,74.6,73.4,93,91,85,29.53,29.38,4,0,4,3.03
2013-1-20,87.6,80.3,75.4,78.9,75.4,73.5,94,85,73,29.50,29.38,6,0,6,0.13
2013-1-21,87.4,80.6,76.5,79.7,76.6,74.3,94,88,77,29.47,29.32,4,0,4,0.42
2013-1-22,80.8,78.6,77.2,78.6,76.7,75.3,95,94,91,29.32,29.20,8,0,8,2.91
2013-1-23,81.1,78.4,77.0,79.4,76.9,75.5,96,95,93,29.23,29.03,10,1,10,7.77
2013-1-24,83.7,79.0,76.3,77.8,74.8,72.3,95,87,78,29.26,29.00,22,2,22,1.03
2013-1-25,95.9,87.7,76.1,79.6,72.5,67.6,92,62,49,29.32,29.17,11,2,11,0.00
2013-1-26,97.7,89.3,84.2,78.4,71.8,66.2,66,57,46,29.35,29.20,28,5,28,0.00
2013-1-27,99.9,90.0,84.7,76.6,73.2,71.4,67,58,42,29.35,29.20,21,4,21,0.00
2013-1-29,101.7,94.6,84.0,77.9,72.4,66.0,67,50,35,29.44,29.32,19,3,19,0.00
2013-1-30,101.7,91.8,80.4,77.8,72.9,63.6,75,56,34,29.56,29.41,30,5,30,0.00
2013-1-31,93.6,89.0,83.1,80.0,77.6,73.6,74,69,65,29.53,29.47,6,2,6,0.00